Location: Rounton
(54.4000°N, 1.3500°W)
Time: 14:14:45
(UTC+00:00)

Transit 2A - Pass Details

Date: 06 December 2021
Orbit: 591 x 967 km, 66.7° (Epoch: 21 January)

Event Time Altitude Azimuth Distance (km) Brightness Sun altitude
Rises 06:08:27 0° 312° (NW) 3,623 - -16.5°
Reaches altitude 10° 06:11:08 10° 320° (NW) 2,700 - -16.1°
Exits shadow 06:12:17 15° 324° (NW) 2,329 8.0 -15.9°
Maximum altitude 06:17:12 43° 31° (NNE) 1,338 7.3 -15.2°
Drops below altitude 10° 06:23:12 10° 102° (ESE) 2,678 10.2 -14.4°
Sets 06:25:52 0° 109° (ESE) 3,591 11.5 -14.0°
